PST,Max TemperatureF,Mean TemperatureF,Min TemperatureF,Max Dew PointF,MeanDew PointF,Min DewpointF,Max Humidity, Mean Humidity, Min Humidity, Max Sea Level PressureIn, Mean Sea Level PressureIn, Min Sea Level PressureIn, Max VisibilityMiles, Mean VisibilityMiles, Min VisibilityMiles, Max Wind SpeedMPH, Mean Wind SpeedMPH, Max Gust SpeedMPH,PrecipitationIn, CloudCover, Events, WindDirDegrees
2013-1-1,44,29,13,16,12,8,88,56,24,30.42,30.32,30.21,10,10,10,12,5,32,0.00,1,,327
2013-1-2,54,35,15,18,12,7,67,42,16,30.38,30.27,30.16,10,10,10,14,8,37,0.00,0,,325
2013-1-3,48,30,12,18,13,7,81,53,11,30.34,30.27,30.17,10,10,10,9,4,,0.00,0,,323
2013-1-4,48,31,13,18,13,10,80,51,21,30.38,30.30,30.23,10,10,10,9,4,10,0.00,0,,315
2013-1-5,48,31,13,19,16,11,84,58,31,30.40,30.25,30.09,10,10,10,18,3,,0.00,0,,310
2013-1-6,38,27,16,30,23,12,92,73,54,30.16,30.07,30.02,10,8,1,14,6,16,T,6,Snow,346
2013-1-7,51,36,20,26,18,14,77,51,24,30.30,30.22,30.14,10,10,10,14,9,18,0.00,1,,314
2013-1-8,66,48,30,29,27,24,78,52,25,30.24,30.19,30.10,10,10,10,17,7,21,0.00,0,,325
2013-1-9,56,41,25,30,27,23,88,63,38,30.22,30.01,29.70,10,10,10,17,5,29,0.00,2,,1
2013-1-10,49,36,22,22,7,-9,70,41,11,29.95,29.78,29.59,10,10,10,31,15,40,0.00,2,,347
2013-1-11,38,28,17,11,4,-4,62,40,17,30.08,30.02,29.94,10,10,10,26,12,35,0.00,2,,353
2013-1-12,40,26,12,8,0,-10,59,36,12,30.17,30.09,29.96,10,10,10,20,10,24,0.00,0,,333
2013-1-13,38,21,3,2,-2,-7,63,39,15,30.29,30.16,30.04,10,10,10,31,12,40,0.00,0,,350
2013-1-14,46,28,9,10,0,-9,58,36,13,30.37,30.31,30.25,10,10,10,23,13,30,0.00,0,,338
2013-1-15,60,45,29,19,18,12,51,36,21,30.45,30.38,30.30,10,10,10,23,15,32,0.00,0,,331
2013-1-16,65,47,28,18,10,1,58,33,8,30.47,30.40,30.30,10,10,10,22,12,26,0.00,0,,330
2013-1-17,62,41,20,8,4,-8,52,29,6,30.46,30.35,30.25,10,10,10,22,7,26,0.00,0,,315
2013-1-18,62,41,19,7,2,-10,49,28,6,30.39,30.31,30.21,10,10,10,13,7,16,0.00,0,,316
2013-1-19,62,40,18,6,2,-8,44,25,6,30.44,30.33,30.23,10,10,10,12,7,29,0.00,0,,312
2013-1-20,63,42,20,7,2,-6,45,26,6,30.39,30.31,30.22,10,10,10,13,8,21,0.00,0,,319
2013-1-21,65,44,22,8,4,-6,46,26,6,30.35,30.26,30.15,10,10,10,13,6,22,0.00,0,,325
2013-1-22,63,41,19,11,8,6,57,34,11,30.29,30.21,30.12,10,10,10,13,5,31,0.00,0,,312
2013-1-23,57,40,22,35,14,9,54,35,15,30.24,30.13,30.05,10,10,10,28,5,37,0.00,2,,21
2013-1-24,55,50,44,41,39,36,83,69,54,30.23,30.17,30.07,10,10,10,28,6,36,T,7,Rain,206
2013-1-25,57,49,41,43,38,31,83,65,47,30.25,30.15,30.02,10,10,10,9,2,14,0.00,7,,151
2013-1-26,61,46,30,39,33,28,92,64,35,30.00,29.86,29.75,10,10,10,17,5,23,0.00,1,,286
2013-1-27,50,39,27,34,16,-3,92,52,12,29.99,29.85,29.71,10,10,10,30,13,39,0.00,1,,342
2013-1-28,46,34,21,14,10,5,57,38,19,30.14,30.06,30.00,10,10,10,26,15,36,0.00,0,,353
2013-1-29,63,49,35,27,24,16,45,35,25,30.33,30.13,30.01,10,10,10,33,18,44,0.00,4,,352
2013-1-30,68,50,31,27,22,12,69,41,13,30.35,30.27,30.17,10,10,10,21,9,25,0.00,0,,342
2013-1-31,66,46,25,23,17,11,68,42,15,30.34,30.25,30.14,10,10,10,12,5,20,0.00,0,,313